Regional Weather Roundup
Issued by NWS Raleigh/Durham, NC

Current Version | Previous Version | Text Only | Print | Product List | Glossary On
Versions: 1 2 3 4 5 6 7 8 9 10 11 12 13 14 15 16 17 18 19 20 21 22 23 24 25 26 27 28 29 30 31 32 33 34 35 36 37 38 39 40 41 42 43 44 45 46
000 ASUS42 KRAH 212310 RWRRAH NORTH CAROLINA WEATHER ROUNDUP NATIONAL WEATHER SERVICE RALEIGH NC 700 PM EDT TUE OCT 21 2014 NOTE: "FAIR" INDICATES FEW OR NO CLOUDS BELOW 12,000 FEET WITH NO SIGNIFICANT WEATHER AND/OR OBSTRUCTIONS TO VISIBILITY. NCZ001-053-055-056-065-067-220000- WESTERN NORTH CAROLINA CITY SKY/WX TMP DP RH WIND PRES REMARKS ASHEVILLE CLEAR 57 39 51 N6 29.98R JEFFERSON PTCLDY 48 32 53 NW12G20 29.97R MORGANTON PTCLDY 60 40 47 NW5 29.99R HICKORY CLEAR 60 39 45 NW6 29.94R RUTHERFORDTON CLEAR 62 40 44 NW10G22 29.94R MOUNT AIRY MOCLDY 60 41 49 NW10G17 29.96R BOONE PTCLDY 49 35 58 NW12 29.98R $$ NCZ021-022-025-041-071-084-088-220000- CENTRAL NORTH CAROLINA CITY SKY/WX TMP DP RH WIND PRES REMARKS CHARLOTTE PTCLDY 64 41 42 NW7 29.91R GREENSBORO MOCLDY 63 40 42 NW12 29.90R WINSTON-SALEM MOCLDY 62 37 39 NW13G18 29.93R RALEIGH-DURHAM MOCLDY 64 51 62 CALM 29.86R FORT BRAGG MOCLDY 69 51 52 NW5 29.86R FAYETTEVILLE MOCLDY 70 51 51 W3 29.85R BURLINGTON CLOUDY 66 42 41 NW9 29.88R LAURINBURG CLOUDY 68 51 54 NW3 29.86R $$ NCZ011-015-027-028-043-044-047-080-103-220000- NORTHEASTERN NORTH CAROLINA CITY SKY/WX TMP DP RH WIND PRES REMARKS ROCKY MT-WILSO CLOUDY 63 57 81 CALM 29.85R GREENVILLE PTCLDY 64 57 77 CALM 29.87S WASHINGTON CLEAR 62 55 77 CALM 29.85R ELIZABETH CITY CLEAR 68 51 54 W3 29.84R MANTEO PTCLDY 68 59 73 S9 29.84S CAPE HATTERAS CLEAR 70 60 70 SW10 29.85R $$ NCZ078-087-090-091-093-098-101-220000- SOUTHEASTERN NORTH CAROLINA CITY SKY/WX TMP DP RH WIND PRES REMARKS LUMBERTON MOCLDY 64 56 75 CALM 29.85R GOLDSBORO CLOUDY 66 60 81 W1 29.83R KINSTON PTCLDY 61 57 88 CALM 29.85R KENANSVILLE MOCLDY 61 55 80 CALM 29.86R HAZE NEW BERN MOCLDY 67 60 78 S3 29.86R CHERRY POINT PTCLDY 67 58 72 S5 29.85S BEAUFORT CLEAR 68 59 73 SW6 29.85R JACKSONVILLE MOCLDY 67 60 78 S5 29.84R WILMINGTON MOCLDY 69 57 65 SW7 29.86R $$

USA.gov is the U.S. government's official web portal to all federal, state and local government web resources and services.